Hourly Data Report for September 27, 2022

OTTAWA INTL A
ONTARIO
Current Station Operator: NAVCAN

45°19'00.000" N
75°40'00.000" W
114.90 m
6106001
71628
YOW

Download Data

Hourly Data (September 2022)
Hourly Data Report for September 27, 2022
TIME
LST
Temp Definition
°C
Dew Point Definition
°C
Rel Hum Definition
%
Precip. Amount Definition
mm

Wind Dir Definition
10's deg

Wind Spd Definition
km/h
Visibility Definition
km
Stn Press Definition
kPa
Hmdx Definition


Wind Chill Definition


Weather Definition


00:00 9.6 9.4 99   14 12 24.1 98.78     LegendNANA
01:00 10.4 10.2 99   13 9 24.1 98.78     Mostly Cloudy
02:00 11.1 10.5 96   14 14 24.1 98.76     LegendNANA
03:00 11.0 10.4 96   13 13 12.9 98.73     Rain Showers
04:00 10.9 10.6 98   7 11 6.4 98.72     Rain, Drizzle, Fog
05:00 10.8 10.7 99   4 8 6.4 98.75     Rain, Fog
06:00 11.0 10.8 99   35 11 9.7 98.81     Rain, Fog
07:00 11.2 11.0 98   32 8 9.7 98.91     Rain, Fog
08:00 12.0 11.1 94   30 8 16.1 98.99     LegendNANA
09:00 12.7 10.1 84   31 10 24.1 99.09     LegendNANA
10:00 13.2 11.0 87   26 13 24.1 99.15     Cloudy
11:00 13.7 11.1 84   24 10 24.1 99.22     LegendNANA
12:00 13.9 10.7 81   28 11 24.1 99.27     LegendNANA
13:00 14.1 10.4 78   24 11 24.1 99.27     Mostly Cloudy
14:00 14.6 10.6 77   23 8 24.1 99.31     LegendNANA
15:00 15.3 10.9 75   24 10 24.1 99.34     LegendNANA
16:00 15.6 11.1 75   23 9 24.1 99.38     Mostly Cloudy
17:00 14.8 12.4 85   25 4 24.1 99.45     LegendNANA
18:00 14.2 12.1 87   27 9 24.1 99.53     LegendNANA
19:00 12.5 11.7 95   25 9 24.1 99.59     Mostly Cloudy
20:00 12.7 11.9 95   30 7 24.1 99.62     LegendNANA
21:00 12.5 10.9 90   29 11 24.1 99.67     LegendNANA
22:00 10.7 10.5 98   26 8 24.1 99.73     Mostly Cloudy
23:00 10.9 10.8 99   26 7 24.1 99.78     LegendNANA

Notes on Data Quality.

Legend

  • E = Estimated
  • M = Missing
  • NA = Not Available*
  • [empty] = Indicates an unobserved value
Date modified: